Location: Unspecified
(0.0000°N, 0.0000°E)
Time: 06:35:54
(UTC+00:00)

Explorer 11/Cluster Stage 4 - Pass Details

Date: 17 December 2018
Orbit: 467 x 1260 km, 28.8° (Epoch: 16 June)

Event Time Altitude Azimuth Distance (km) Brightness Sun altitude
Rises 19:40:19 0° 233° (SW) 4,200 11.7 -23.7°
Reaches altitude 10° 19:43:23 10° 230° (SW) 3,205 10.7 -24.4°
Maximum altitude 19:51:25 63° 150° (SSE) 1,264 7.4 -26.2°
Enters shadow 19:53:02 51° 101° (E) 1,371 7.4 -26.6°
